Winona, MN

1:12 PM CST on February 25, 2017 (GMT -0600)
Winona Municipal-Conrad

Weather History for KONA - February, 2014

Change the Weather History Date:

Saturday, February 1, 2014

  Actual Average Record
Temperature  
Mean Temperature 10 °F -  
Max Temperature 23 °F 34 °F 46 °F (1993)
Min Temperature -2 °F 20 °F -9 °F (2013)
Degree Days  
Heating Degree Days 54    
Moisture  
Dew Point 2 °F    
Average Humidity 70    
Maximum Humidity 78    
Minimum Humidity 58    
Precipitation  
Precipitation 0.00 in - - ()
Sea Level Pressure  
Sea Level Pressure 30.04 in    
Wind  
Wind Speed 2 mph (West)    
Max Wind Speed 10 mph    
Max Gust Speed -    
Visibility 10 miles    
Events      
Averages and records for this station are not official NWS values.
T = Trace of Precipitation, MM = Missing Value Source: NWS Daily Summary

Daily Weather History Graph

Daily Weather History Graph

Search for Another Location

Airport or City:

Trip Planner

Search our weather history database for the weather conditions in past years. The results will help you decide how hot, cold, wet, or windy it might be!

Date:

Astronomy

Feb. 01, 2014 Rise Set
Actual Time 7:24 AM CST 5:17 PM CST
Civil Twilight 6:53 AM CST 5:47 PM CST
Nautical Twilight 6:19 AM CST 6:22 PM CST
Astronomical Twilight 5:45 AM CST 6:56 PM CST
Moon 8:08 AM CST (2/1) 8:00 PM CST (2/1)
Length of Visible Light 10h 54m
Length of Day
9h 52m
Waxing Crescent, 5% of the Moon is Illuminated
Feb 1
Waxing Crescent
Feb 6
First Quarter
Feb 14
Full
Feb 22
Last Quarter
Mar 1
New

Hourly Weather History & Observations

Time (CST) Temp. Windchill Dew Point Humidity Pressure Visibility Wind Dir Wind Speed Gust Speed Precip Events Conditions
12:18 AM -2.2 °F - -7.6 °F 78% 30.09 in 10.0 mi Calm Calm - N/A   Clear
12:38 AM -2.2 °F - -7.6 °F 78% 30.08 in 10.0 mi Calm Calm - N/A   Clear
12:58 AM -2.2 °F - -7.6 °F 78% 30.07 in 10.0 mi Calm Calm - N/A   Clear
1:18 AM -0.4 °F - -7.6 °F 72% 30.07 in 10.0 mi Calm Calm - N/A   Clear
1:38 AM -0.4 °F - -5.8 °F 78% 30.07 in 10.0 mi Calm Calm - N/A   Clear
1:58 AM -0.4 °F - -5.8 °F 78% 30.08 in 10.0 mi Calm Calm - N/A   Clear
2:18 AM -0.4 °F - -5.8 °F 78% 30.07 in 10.0 mi Calm Calm - N/A   Clear
2:38 AM -0.4 °F - -5.8 °F 78% 30.06 in 10.0 mi Calm Calm - N/A   Clear
2:58 AM 1.4 °F -6.2 °F -5.8 °F 72% 30.04 in 10.0 mi South 3.5 mph - N/A   Clear
3:18 AM 1.4 °F -6.2 °F -5.8 °F 72% 30.04 in 10.0 mi SE 3.5 mph - N/A   Clear
3:37 AM 1.4 °F - -5.8 °F 72% 30.05 in 10.0 mi Calm Calm - N/A   Clear
3:58 AM 1.4 °F - -5.8 °F 72% 30.05 in 10.0 mi Calm Calm - N/A   Clear
4:18 AM 1.4 °F - -5.8 °F 72% 30.04 in 10.0 mi Calm Calm - N/A   Clear
4:37 AM 1.4 °F - -5.8 °F 72% 30.04 in 10.0 mi Calm Calm - N/A   Clear
4:58 AM 1.4 °F - -5.8 °F 72% 30.04 in 10.0 mi Calm Calm - N/A   Scattered Clouds
5:18 AM 1.4 °F - -4.0 °F 78% 30.03 in 10.0 mi Calm Calm - N/A   Scattered Clouds
5:37 AM 3.2 °F - -4.0 °F 72% 30.02 in 10.0 mi Calm Calm - N/A   Clear
5:58 AM 3.2 °F - -4.0 °F 72% 30.02 in 10.0 mi Calm Calm - N/A   Clear
6:18 AM 3.2 °F -4.2 °F -4.0 °F 72% 30.01 in 10.0 mi SSE 3.5 mph - N/A   Clear
6:37 AM 3.2 °F -7.8 °F -4.0 °F 72% 30.00 in 10.0 mi SE 5.8 mph - N/A   Scattered Clouds
6:58 AM 3.2 °F -4.2 °F -4.0 °F 72% 30.00 in 10.0 mi SE 3.5 mph - N/A   Scattered Clouds
7:18 AM 3.2 °F -6.2 °F -4.0 °F 72% 30.01 in 10.0 mi SSE 4.6 mph - N/A   Scattered Clouds
7:37 AM 3.2 °F -7.8 °F -4.0 °F 72% 30.01 in 10.0 mi SSE 5.8 mph - N/A   Mostly Cloudy
7:58 AM 3.2 °F -6.2 °F -4.0 °F 72% 30.01 in 10.0 mi SSE 4.6 mph - N/A   Mostly Cloudy
8:18 AM 5.0 °F -2.1 °F -2.2 °F 72% 30.01 in 10.0 mi SSE 3.5 mph - N/A   Scattered Clouds
8:38 AM 5.0 °F -5.6 °F -0.4 °F 78% 30.00 in 10.0 mi SE 5.8 mph - N/A   Clear
8:58 AM 8.6 °F -1.3 °F -0.4 °F 67% 29.99 in 10.0 mi SE 5.8 mph - N/A   Clear
9:18 AM 8.6 °F 0.1 °F -0.4 °F 67% 29.99 in 10.0 mi SE 4.6 mph - N/A   Clear
9:38 AM 8.6 °F 0.1 °F -0.4 °F 67% 30.00 in 10.0 mi SE 4.6 mph - N/A   Clear
9:58 AM 10.4 °F - 1.4 °F 67% 30.00 in 10.0 mi Calm Calm - N/A   Clear
10:18 AM 10.4 °F - 1.4 °F 67% 30.02 in 10.0 mi Calm Calm - N/A   Mostly Cloudy
10:38 AM 10.4 °F - 1.4 °F 67% 30.02 in 10.0 mi Calm Calm - N/A   Overcast
10:58 AM 12.2 °F - 3.2 °F 67% 30.01 in 10.0 mi Calm Calm - N/A   Overcast
11:18 AM 12.2 °F 6.1 °F 1.4 °F 62% 30.00 in 10.0 mi ESE 3.5 mph - N/A   Overcast
11:38 AM 14.0 °F - 3.2 °F 62% 29.99 in 10.0 mi Calm Calm - N/A   Overcast
11:58 AM 15.8 °F - 3.2 °F 58% 29.99 in 10.0 mi Calm Calm - N/A   Overcast
12:18 PM 15.8 °F - 3.2 °F 58% 29.99 in 10.0 mi Calm Calm - N/A   Overcast
12:38 PM 15.8 °F - 3.2 °F 58% 29.98 in 10.0 mi Calm Calm - N/A   Overcast
12:58 PM 17.6 °F - 5.0 °F 58% 29.98 in 10.0 mi Calm Calm - N/A   Overcast
1:18 PM 19.4 °F - 10.4 °F 68% 29.97 in 10.0 mi Calm Calm - N/A   Overcast
1:38 PM 19.4 °F - 10.4 °F 68% 29.97 in 10.0 mi Calm Calm - N/A   Overcast
1:58 PM 19.4 °F - 10.4 °F 68% 29.97 in 10.0 mi Calm Calm - N/A   Overcast
2:18 PM 21.2 °F 14.9 °F 12.2 °F 68% 29.97 in 10.0 mi WNW 4.6 mph - N/A   Overcast
2:38 PM 23.0 °F 14.7 °F 14.0 °F 68% 29.97 in 10.0 mi WNW 6.9 mph - N/A   Overcast
2:58 PM 23.0 °F 14.7 °F 12.2 °F 63% 29.98 in 10.0 mi WNW 6.9 mph - N/A   Scattered Clouds
3:18 PM 21.2 °F - 10.4 °F 63% 29.98 in 10.0 mi Calm Calm - N/A   Scattered Clouds
3:38 PM 23.0 °F 17.0 °F 14.0 °F 68% 29.98 in 10.0 mi WNW 4.6 mph - N/A   Scattered Clouds
3:58 PM 23.0 °F 15.8 °F 14.0 °F 68% 29.99 in 10.0 mi NW 5.8 mph - N/A   Mostly Cloudy
4:18 PM 23.0 °F 17.0 °F 14.0 °F 68% 30.00 in 10.0 mi WNW 4.6 mph - N/A   Mostly Cloudy
4:38 PM 23.0 °F 14.7 °F 14.0 °F 68% 30.01 in 10.0 mi WNW 6.9 mph - N/A   Scattered Clouds
4:58 PM 21.2 °F 10.9 °F 14.0 °F 74% 30.01 in 10.0 mi WNW 9.2 mph - N/A   Scattered Clouds
5:18 PM 21.2 °F 11.7 °F 14.0 °F 74% 30.02 in 10.0 mi NW 8.1 mph - N/A   Scattered Clouds
5:38 PM 21.2 °F 14.9 °F 14.0 °F 74% 30.02 in 10.0 mi NW 4.6 mph - N/A   Mostly Cloudy
5:58 PM 21.2 °F 10.9 °F 14.0 °F 74% 30.04 in 10.0 mi WNW 9.2 mph - N/A   Overcast
6:18 PM 21.2 °F 10.1 °F 14.0 °F 74% 30.05 in 10.0 mi WNW 10.4 mph - N/A   Overcast
6:38 PM 21.2 °F 11.7 °F 12.2 °F 68% 30.06 in 10.0 mi WNW 8.1 mph - N/A   Overcast
6:58 PM 19.4 °F 7.9 °F 12.2 °F 74% 30.07 in 10.0 mi WNW 10.4 mph - N/A   Overcast
9:46 PM 14.0 °F 2.9 °F 6.8 °F 73% 30.15 in 10.0 mi WNW 8.1 mph - N/A   Overcast
9:53 PM 14.0 °F 2.9 °F 6.8 °F 73% 30.14 in 10.0 mi WNW 8.1 mph - N/A   Overcast
10:18 PM 14.0 °F 2.0 °F 5.0 °F 67% 30.16 in 10.0 mi WNW 9.2 mph - N/A   Overcast
10:38 PM 12.2 °F 0.7 °F 5.0 °F 73% 30.17 in 10.0 mi WNW 8.1 mph - N/A   Mostly Cloudy
10:58 PM 12.2 °F 0.7 °F 3.2 °F 67% 30.18 in 10.0 mi WNW 8.1 mph - N/A   Overcast
11:18 PM 10.4 °F -2.4 °F 1.4 °F 67% 30.19 in 10.0 mi WNW 9.2 mph - N/A   Mostly Cloudy
11:38 PM 10.4 °F -1.5 °F 1.4 °F 67% 30.20 in 10.0 mi WNW 8.1 mph - N/A   Scattered Clouds
11:58 PM 10.4 °F -1.5 °F 1.4 °F 67% 30.20 in 10.0 mi WNW 8.1 mph - N/A   Clear